Voltar ao catálogo

MORSAT-1

AtivoMilitarSSO
NORAD 67278·PAYLOAD·🇷🇺 Russia
Este nome de satélite ainda não foi confirmado por fontes oficiais.

Lançado Dec 28, 2025 de Vostochny Cosmodrome

Loading…

Próximas Passagens (próximas 24 horas)

TLE

AtualizadoSource: Space-Track

Época: Sep 14, 2026, 10:34 UTC

1 67278U 25313AG  26257.44061143  .00005058  00000-0  21460-3 0  9993
2 67278  97.3824 330.5293 0015426  58.2942 301.9796 15.23440331 39540

Acompanhe MORSAT-1 em tempo real com AllMySat

Download on the App Store